WAT7858 VHHH-VVNB

Flight info

Callsign WAT7858
Flight time 1h 41m
Altitude 36000
Route PECAN V10 SIKOU/K0878S1100 R339 WUY R474 TEBAK/K0876F360 R474 NAKHA NAKHA3K
Aircraft B738/M-SDE2E3FGHIRWXY/LB1

Departure

Time 2026-05-04 15:46
Airport Hong Kong International Airport (VHHH)

Arrival

Time 2026-05-04 17:27
Airport Noi Bai International Airport (VVNB)
Time Latitude Longitude Altitude Speed Heading
2026-05-04 15:23 22.31644 113.93071 30 ft 0 kts 341°
2026-05-04 15:32 22.31612 113.93089 30 ft 4 kts 313°
2026-05-04 15:33 22.31600 113.93140 30 ft 4 kts 252°
2026-05-04 15:34 22.31606 113.93159 30 ft 0 kts 247°
2026-05-04 15:36 22.31578 113.93081 30 ft 12 kts 251°
2026-05-04 15:36 22.31551 113.92995 29 ft 12 kts 251°
2026-05-04 15:36 22.31586 113.92926 29 ft 12 kts 337°
2026-05-04 15:37 22.31685 113.92887 30 ft 18 kts 342°
2026-05-04 15:37 22.31802 113.92846 30 ft 17 kts 342°
2026-05-04 15:37 22.31860 113.92754 29 ft 17 kts 253°
2026-05-04 15:37 22.31816 113.92620 30 ft 25 kts 250°
2026-05-04 15:38 22.31758 113.92438 29 ft 25 kts 251°
2026-05-04 15:38 22.31704 113.92267 29 ft 23 kts 250°
2026-05-04 15:38 22.31651 113.92105 29 ft 22 kts 251°
2026-05-04 15:38 22.31601 113.91948 29 ft 22 kts 251°
2026-05-04 15:39 22.31552 113.91795 29 ft 21 kts 250°
2026-05-04 15:39 22.31504 113.91646 30 ft 21 kts 251°
2026-05-04 15:39 22.31404 113.91340 30 ft 21 kts 251°
2026-05-04 15:40 22.31359 113.91190 30 ft 21 kts 252°
2026-05-04 15:40 22.31309 113.91040 30 ft 24 kts 250°
2026-05-04 15:40 22.31252 113.90865 28 ft 25 kts 251°
2026-05-04 15:40 22.31196 113.90694 29 ft 24 kts 250°
2026-05-04 15:41 22.31138 113.90509 29 ft 26 kts 251°
2026-05-04 15:41 22.31081 113.90335 29 ft 24 kts 251°
2026-05-04 15:41 22.31031 113.90169 29 ft 23 kts 252°
2026-05-04 15:41 22.30979 113.90011 29 ft 22 kts 250°
2026-05-04 15:42 22.30929 113.89857 29 ft 21 kts 252°
2026-05-04 15:42 22.30897 113.89738 29 ft 14 kts 273°
2026-05-04 15:42 22.30929 113.89695 29 ft 0 kts 334°
2026-05-04 15:44 22.30978 113.89680 29 ft 14 kts 346°
2026-05-04 15:45 22.31063 113.89709 29 ft 14 kts 66°
2026-05-04 15:45 22.31124 113.89897 29 ft 59 kts 70°
2026-05-04 15:45 22.31351 113.90589 27 ft 134 kts 70°
2026-05-04 15:45 22.31729 113.91714 298 ft 173 kts 68°
2026-05-04 15:46 22.32123 113.92939 1401 ft 165 kts 71°
2026-05-04 15:46 22.32504 113.94139 2320 ft 177 kts 71°
2026-05-04 15:46 22.32940 113.95511 2701 ft 206 kts 72°
2026-05-04 15:46 22.33401 113.97016 3254 ft 216 kts 76°
2026-05-04 15:47 22.33697 113.98634 3872 ft 225 kts 81°
2026-05-04 15:47 22.33962 114.00344 4521 ft 235 kts 81°
2026-05-04 15:47 22.34236 114.02094 5345 ft 237 kts 81°
2026-05-04 15:47 22.34403 114.03890 6058 ft 245 kts 96°
2026-05-04 15:48 22.33988 114.05676 6785 ft 247 kts 119°
2026-05-04 15:48 22.32985 114.07163 7482 ft 248 kts 141°
2026-05-04 15:48 22.29760 114.08730 8598 ft 261 kts 180°
2026-05-04 15:49 22.27944 114.08761 9336 ft 267 kts 187°
2026-05-04 15:49 22.26024 114.08715 9862 ft 283 kts 186°
2026-05-04 15:49 22.24020 114.08681 10382 ft 297 kts 186°
2026-05-04 15:49 22.21860 114.08651 10570 ft 323 kts 186°
2026-05-04 15:50 22.19523 114.08643 10740 ft 348 kts 182°
2026-05-04 15:50 22.17074 114.09291 10863 ft 382 kts 158°
2026-05-04 15:50 22.14937 114.11110 11246 ft 404 kts 133°
2026-05-04 15:50 22.13488 114.13745 11843 ft 413 kts 119°
2026-05-04 15:51 22.12231 114.16549 12428 ft 417 kts 119°
2026-05-04 15:51 22.10955 114.19369 12980 ft 421 kts 120°
2026-05-04 15:51 22.09647 114.22172 13499 ft 426 kts 121°
2026-05-04 15:51 22.08265 114.25009 14012 ft 428 kts 126°
2026-05-04 15:52 22.06358 114.27407 14480 ft 419 kts 147°
2026-05-04 15:52 22.03999 114.29228 15029 ft 417 kts 150°
2026-05-04 15:52 22.01614 114.31034 15501 ft 421 kts 150°
2026-05-04 15:52 21.99066 114.32520 15920 ft 414 kts 167°
2026-05-04 15:53 21.96258 114.32973 16406 ft 404 kts 186°
2026-05-04 15:53 21.93519 114.32522 16918 ft 397 kts 200°
2026-05-04 15:53 21.91000 114.31362 17362 ft 393 kts 215°
2026-05-04 15:53 21.88799 114.29617 17818 ft 393 kts 221°
2026-05-04 15:54 21.86657 114.27763 18263 ft 396 kts 222°
2026-05-04 15:54 21.85210 114.26495 18508 ft 398 kts 221°
2026-05-04 15:54 21.83061 114.24619 18971 ft 398 kts 221°
2026-05-04 15:54 21.80932 114.22777 19354 ft 400 kts 221°
2026-05-04 15:55 21.78744 114.20900 19691 ft 404 kts 221°
2026-05-04 15:55 21.76536 114.19017 20033 ft 406 kts 221°
2026-05-04 15:55 21.74309 114.17124 20382 ft 409 kts 221°
2026-05-04 15:55 21.72074 114.15226 20720 ft 411 kts 220°
2026-05-04 15:56 21.69817 114.13310 21036 ft 414 kts 220°
2026-05-04 15:56 21.67548 114.11384 21356 ft 417 kts 220°
2026-05-04 15:56 21.65223 114.09497 21664 ft 421 kts 215°
2026-05-04 15:56 21.62528 114.08201 21959 ft 431 kts 199°
2026-05-04 15:57 21.59600 114.07443 22306 ft 434 kts 197°
2026-05-04 15:57 21.56644 114.06735 22571 ft 437 kts 197°
2026-05-04 15:57 21.53669 114.06010 22814 ft 440 kts 197°
2026-05-04 15:57 21.50677 114.05256 23080 ft 442 kts 197°
2026-05-04 15:58 21.47673 114.04481 23360 ft 445 kts 197°
2026-05-04 15:58 21.44670 114.03671 23608 ft 445 kts 201°
2026-05-04 15:58 21.41888 114.02278 23789 ft 440 kts 217°
2026-05-04 15:58 21.39383 114.00393 24073 ft 439 kts 217°
2026-05-04 15:59 21.36856 113.98541 24307 ft 441 kts 217°
2026-05-04 15:59 21.34300 113.96709 24512 ft 443 kts 216°
2026-05-04 15:59 21.31720 113.94882 24715 ft 445 kts 216°
2026-05-04 15:59 21.29132 113.93059 24926 ft 446 kts 216°
2026-05-04 16:00 21.26537 113.91233 25198 ft 445 kts 216°
2026-05-04 16:00 21.23949 113.89412 25405 ft 447 kts 216°
2026-05-04 16:00 21.21349 113.87579 25580 ft 449 kts 216°
2026-05-04 16:00 21.18738 113.85739 25754 ft 450 kts 216°
2026-05-04 16:01 21.16115 113.83890 25940 ft 452 kts 216°
2026-05-04 16:01 21.13488 113.82041 26130 ft 453 kts 217°
2026-05-04 16:01 21.11047 113.80005 26284 ft 450 kts 227°
2026-05-04 16:01 21.09020 113.77458 26473 ft 449 kts 236°
2026-05-04 16:02 21.07369 113.74630 26665 ft 448 kts 243°
2026-05-04 16:02 21.06180 113.71536 26804 ft 450 kts 251°
2026-05-04 16:02 21.04283 113.65138 27111 ft 452 kts 257°
2026-05-04 16:03 21.03871 113.61807 27317 ft 452 kts 264°
2026-05-04 16:03 21.03616 113.58449 27563 ft 452 kts 264°
2026-05-04 16:03 21.03358 113.55100 27804 ft 451 kts 264°
2026-05-04 16:03 21.03119 113.52112 28029 ft 451 kts 264°
2026-05-04 16:04 21.02988 113.50517 28159 ft 451 kts 264°
2026-05-04 16:04 21.02708 113.47180 28419 ft 450 kts 264°
2026-05-04 16:05 21.02421 113.43847 28680 ft 450 kts 264°
2026-05-04 16:05 21.02130 113.40518 28950 ft 449 kts 264°
2026-05-04 16:05 21.01544 113.33879 29529 ft 447 kts 264°
2026-05-04 16:06 21.01251 113.30566 29811 ft 447 kts 264°
2026-05-04 16:06 21.00468 113.21769 30539 ft 444 kts 264°
2026-05-04 16:07 21.00077 113.17373 30943 ft 442 kts 264°
2026-05-04 16:07 20.99204 113.07632 31870 ft 437 kts 264°
2026-05-04 16:08 20.98914 113.04406 32244 ft 434 kts 264°
2026-05-04 16:08 20.98045 112.94798 33199 ft 431 kts 264°
2026-05-04 16:09 20.97468 112.88444 33890 ft 427 kts 264°
2026-05-04 16:09 20.96893 112.82134 34460 ft 425 kts 264°
2026-05-04 16:10 20.96317 112.75849 35003 ft 423 kts 264°
2026-05-04 16:11 20.95457 112.66499 35806 ft 420 kts 264°
2026-05-04 16:11 20.95170 112.63396 36067 ft 419 kts 264°
2026-05-04 16:12 20.93432 112.44720 36107 ft 416 kts 264°
2026-05-04 16:13 20.92282 112.32483 36094 ft 413 kts 263°
2026-05-04 16:14 20.91118 112.20199 36185 ft 421 kts 263°
2026-05-04 16:15 20.90228 112.10865 36928 ft 417 kts 263°
2026-05-04 16:16 20.89639 112.04711 37422 ft 416 kts 263°
2026-05-04 16:16 20.88752 111.95502 38013 ft 415 kts 263°
2026-05-04 16:17 20.88157 111.89347 38003 ft 416 kts 263°
2026-05-04 16:18 20.86972 111.77157 37990 ft 413 kts 264°
2026-05-04 16:19 20.85456 111.61702 38006 ft 421 kts 264°
2026-05-04 16:20 20.85154 111.46311 38097 ft 419 kts 282°
2026-05-04 16:22 20.88992 111.31249 38105 ft 421 kts 283°
2026-05-04 16:23 20.93518 111.13084 38104 ft 421 kts 283°
2026-05-04 16:25 20.98075 110.94901 38108 ft 422 kts 283°
2026-05-04 16:26 21.03411 110.73722 38117 ft 422 kts 283°
2026-05-04 16:28 21.07213 110.58543 38115 ft 422 kts 283°
2026-05-04 16:29 21.12512 110.37283 38116 ft 422 kts 283°
2026-05-04 16:30 21.15823 110.28544 38130 ft 426 kts 295°
2026-05-04 16:31 21.18683 110.22982 38123 ft 426 kts 295°
2026-05-04 16:32 21.27127 110.06306 38126 ft 424 kts 295°
2026-05-04 16:33 21.32714 109.95191 38128 ft 423 kts 295°
2026-05-04 16:34 21.36892 109.86867 38128 ft 422 kts 295°
2026-05-04 16:35 21.45234 109.70208 38131 ft 422 kts 295°
2026-05-04 16:36 21.49402 109.61864 38130 ft 423 kts 295°
2026-05-04 16:37 21.53570 109.53506 38132 ft 423 kts 295°
2026-05-04 16:38 21.59268 109.42421 38125 ft 427 kts 302°
2026-05-04 16:39 21.68843 109.30179 38134 ft 429 kts 306°
2026-05-04 16:40 21.76499 109.20334 38140 ft 429 kts 306°
2026-05-04 16:41 21.86054 109.08020 38146 ft 429 kts 307°
2026-05-04 16:43 21.95027 108.96570 38147 ft 429 kts 307°
2026-05-04 16:43 22.01422 108.88386 38159 ft 429 kts 307°
2026-05-04 16:45 22.12285 108.74454 38154 ft 428 kts 307°
2026-05-04 16:46 22.21876 108.62203 38148 ft 427 kts 307°
2026-05-04 16:47 22.29545 108.52383 38153 ft 428 kts 307°
2026-05-04 16:48 22.37204 108.42556 38158 ft 427 kts 307°
2026-05-04 16:49 22.44851 108.32725 38157 ft 427 kts 308°
2026-05-04 16:50 22.52485 108.22891 38179 ft 427 kts 307°
2026-05-04 16:51 22.57287 108.15011 38194 ft 421 kts 284°
2026-05-04 16:51 22.57620 108.08725 38187 ft 424 kts 263°
2026-05-04 16:52 22.56510 108.02444 38167 ft 425 kts 261°
2026-05-04 16:53 22.54733 107.93018 38168 ft 426 kts 261°
2026-05-04 16:54 22.52472 107.80407 38154 ft 427 kts 261°
2026-05-04 16:55 22.49091 107.61471 38162 ft 427 kts 262°
2026-05-04 16:56 22.46255 107.45700 38164 ft 427 kts 261°
2026-05-04 16:57 22.44548 107.36249 38148 ft 427 kts 261°
2026-05-04 16:58 22.42261 107.23619 38159 ft 429 kts 261°
2026-05-04 17:00 22.38893 107.04648 38145 ft 430 kts 261°
2026-05-04 17:01 22.35762 106.88981 37358 ft 419 kts 249°
2026-05-04 17:01 22.32698 106.83558 35362 ft 432 kts 233°
2026-05-04 17:02 22.28384 106.78928 33541 ft 435 kts 229°
2026-05-04 17:02 22.24067 106.74457 32019 ft 427 kts 229°
2026-05-04 17:03 22.21938 106.72210 31277 ft 429 kts 229°
2026-05-04 17:03 22.19802 106.69944 30529 ft 432 kts 229°
2026-05-04 17:03 22.15359 106.65496 28923 ft 437 kts 224°
2026-05-04 17:04 22.10585 106.61386 27090 ft 442 kts 223°
2026-05-04 17:04 22.05753 106.57246 25441 ft 441 kts 223°
2026-05-04 17:05 22.01001 106.53115 24030 ft 436 kts 223°
2026-05-04 17:05 21.96308 106.49024 22496 ft 431 kts 223°
2026-05-04 17:06 21.91835 106.44829 21070 ft 422 kts 225°
2026-05-04 17:06 21.89664 106.42715 20388 ft 418 kts 225°
2026-05-04 17:07 21.85366 106.38558 19038 ft 413 kts 225°
2026-05-04 17:07 21.83950 106.37200 18589 ft 412 kts 225°
2026-05-04 17:07 21.81093 106.34470 17589 ft 409 kts 224°
2026-05-04 17:07 21.78972 106.32449 16900 ft 406 kts 224°
2026-05-04 17:08 21.76868 106.30445 16228 ft 403 kts 224°
2026-05-04 17:08 21.72716 106.26464 15073 ft 393 kts 227°
2026-05-04 17:08 21.70880 106.24369 14897 ft 380 kts 231°
2026-05-04 17:09 21.69143 106.22175 14795 ft 394 kts 232°
2026-05-04 17:09 21.67347 106.19882 14657 ft 405 kts 232°
2026-05-04 17:09 21.65518 106.17582 14513 ft 404 kts 231°
2026-05-04 17:10 21.61829 106.13052 14239 ft 402 kts 231°
2026-05-04 17:10 21.56646 106.06353 13063 ft 380 kts 235°
2026-05-04 17:11 21.55083 106.04089 12536 ft 375 kts 235°
2026-05-04 17:11 21.53533 106.01858 12008 ft 371 kts 235°
2026-05-04 17:11 21.50440 105.97490 10977 ft 364 kts 234°
2026-05-04 17:12 21.48896 105.95356 10460 ft 361 kts 233°
2026-05-04 17:12 21.45762 105.91289 9919 ft 333 kts 232°
2026-05-04 17:13 21.41726 105.86057 9552 ft 277 kts 232°
2026-05-04 17:14 21.38434 105.81381 8692 ft 251 kts 255°
2026-05-04 17:14 21.38163 105.79560 8357 ft 246 kts 265°
2026-05-04 17:14 21.37852 105.75877 7756 ft 247 kts 265°
2026-05-04 17:15 21.37695 105.74043 7536 ft 246 kts 265°
2026-05-04 17:15 21.37375 105.70418 6963 ft 242 kts 265°
2026-05-04 17:16 21.37065 105.66964 6559 ft 221 kts 265°
2026-05-04 17:16 21.37683 105.62258 6296 ft 224 kts 288°
2026-05-04 17:17 21.38151 105.60659 6225 ft 225 kts 287°
2026-05-04 17:17 21.39518 105.55912 5799 ft 218 kts 287°
2026-05-04 17:18 21.39960 105.54375 5390 ft 219 kts 287°
2026-05-04 17:18 21.40844 105.51233 4594 ft 219 kts 280°
2026-05-04 17:19 21.39512 105.48654 4060 ft 217 kts 200°
2026-05-04 17:19 21.36656 105.48938 3991 ft 210 kts 147°
2026-05-04 17:20 21.34291 105.50684 3988 ft 207 kts 144°
2026-05-04 17:20 21.31887 105.52459 3987 ft 211 kts 145°
2026-05-04 17:20 21.30679 105.53347 3980 ft 209 kts 145°
2026-05-04 17:21 21.29068 105.55808 3720 ft 211 kts 104°
2026-05-04 17:21 21.28223 105.58709 3171 ft 192 kts 108°
2026-05-04 17:22 21.27837 105.60014 2906 ft 175 kts 108°
2026-05-04 17:22 21.27495 105.61193 2742 ft 155 kts 108°
2026-05-04 17:23 21.26577 105.64368 2503 ft 146 kts 108°
2026-05-04 17:23 21.26273 105.65423 2482 ft 150 kts 108°
2026-05-04 17:23 21.25658 105.67557 2133 ft 148 kts 108°
2026-05-04 17:24 21.25356 105.68607 1951 ft 147 kts 109°
2026-05-04 17:24 21.24447 105.71761 1373 ft 148 kts 109°
2026-05-04 17:25 21.24143 105.72818 1181 ft 148 kts 108°
2026-05-04 17:25 21.23529 105.74950 797 ft 151 kts 107°
2026-05-04 17:26 21.22915 105.77105 377 ft 147 kts 108°
2026-05-04 17:26 21.22128 105.79826 48 ft 71 kts 107°
2026-05-04 17:27 21.21888 105.79974 49 ft 20 kts 195°
2026-05-04 17:27 21.21760 105.80186 47 ft 18 kts 108°
2026-05-04 17:28 21.21676 105.80433 49 ft 17 kts 115°
2026-05-04 17:29 21.21602 105.80413 49 ft 0 kts 222°